Location: Bacharowice
(49.9333°N, 19.5833°E)
Time: 07:19:13
(UTC+00:00)

Cosmos 1908 Rocket - Pass Details

Date: 26 September 2021
Orbit: 605 x 633 km, 82.5° (Epoch: 27 October)

Event Time Altitude Azimuth Distance (km) Brightness Sun altitude
Rises 16:56:54 0° 170° (S) 2,916 6.9 -5.0°
Reaches altitude 10° 16:59:13 10° 163° (SSE) 2,013 6.0 -5.4°
Maximum altitude 17:03:25 43° 93° (E) 896 4.0 -6.1°
Drops below altitude 10° 17:07:40 10° 22° (NNE) 2,020 6.0 -6.8°
Sets 17:09:58 0° 16° (NNE) 2,929 6.9 -7.1°
